GW4294 Weather Reports


Display with metric or nautical units.
time (UTC)temp
F
wind
direction
speed
MPH
gust
MPH
rain 1hr
in
rain 24hr
in
rain mn
in
humidity
%
barometer
mb
20260502123103 35 283 2.0 7.0 0.00 0.00 0.00 84 1015.0
20260502121556 35 299 0.0 3.0 0.00 0.00 0.00 88 1015.1
20260502114556 34 296 1.0 7.0 0.00 0.00 0.00 87 1015.0
20260502113054 34 298 2.0 5.0 0.00 0.00 0.00 87 1014.8
20260502111559 34 311 0.0 5.0 0.00 0.00 0.00 88 1014.8
20260502110055 34 304 1.0 5.0 0.00 0.00 0.00 87 1014.4
20260502104552 34 296 2.0 4.0 0.00 0.00 0.00 86 1014.1
20260502103104 34 304 0.0 5.0 0.00 0.00 0.00 86 1014.0
20260502101610 34 302 0.0 4.0 0.00 0.00 0.00 86 1013.9
20260502100132 34 0 2.0 6.0 0.00 0.00 0.00 85 1013.9
20260502090110 34 280 2.0 5.0 0.00 0.00 0.00 83 1013.9
20260502070100 32 238 0.0 1.0 0.00 0.00 0.00 79 1013.9
20260502064606 33 0 0.0 1.0 0.00 0.00 0.00 79 1014.0
20260502063106 33 0 0.0 1.0 0.00 0.00 0.00 78 1013.9
20260502061610 34 0 0.0 2.0 0.00 0.00 0.00 76 1013.9
20260502060056 35 311 0.0 3.0 0.00 0.00 0.00 75 1013.9
20260502054555 35 288 1.0 5.0 0.00 0.00 0.00 74 1014.0
20260502053104 35 279 0.0 2.0 0.00 0.00 0.00 74 1014.0
20260502051557 35 256 0.0 2.0 0.00 0.00 0.00 75 1014.1
20260502050057 35 276 0.0 1.0 0.00 0.00 0.00 75 1014.1
20260502044556 35 0 0.0 2.0 0.00 0.00 0.00 76 1014.1
20260502043100 35 283 0.0 1.0 0.00 0.00 0.00 77 1014.1
20260502041559 35 293 0.0 2.0 0.00 0.00 0.00 78 1014.2
20260502040059 35 0 0.0 1.0 0.00 0.00 0.00 78 1014.0
20260502034553 34 300 0.0 2.0 0.00 0.00 0.00 79 1014.1
20260502033054 34 0 0.0 4.0 0.00 0.00 0.00 80 1013.9
20260502031601 34 0 0.0 2.0 0.00 0.00 0.00 80 1013.9
20260502030059 34 0 0.0 3.0 0.00 0.00 0.00 81 1014.1
20260502024602 34 0 1.0 3.0 0.00 0.00 0.00 82 1014.0
20260502023056 34 266 0.0 3.0 0.00 0.00 0.00 82 1013.9
20260502021602 34 0 0.0 2.0 0.00 0.00 0.00 82 1013.9
20260502020053 34 0 0.0 2.0 0.00 0.00 0.00 82 1013.9
20260502014555 34 292 0.0 4.0 0.00 0.00 0.00 82 1013.9
20260502013109 34 279 1.0 3.0 0.00 0.00 0.00 81 1013.8
20260502011553 35 285 2.0 5.0 0.00 0.00 0.00 80 1013.9
20260502010109 35 304 1.0 6.0 0.00 0.00 0.00 79 1013.6
20260502004603 35 304 1.0 4.0 0.00 0.00 0.00 78 1013.5
20260502003053 36 274 0.0 5.0 0.00 0.00 0.00 76 1013.4
20260502001558 37 335 0.0 4.0 0.00 0.00 0.00 76 1013.3
20260502000056 37 37 0.0 4.0 0.00 0.00 0.00 74 1013.3
20260501234553 37 0 0.0 3.0 0.00 0.00 0.00 78 1013.2
20260501233057 38 296 0.0 6.0 0.00 0.00 0.00 77 1013.1
20260501231607 38 0 0.0 5.0 0.00 0.00 0.00 76 1013.0
20260501230101 38 317 2.0 10.0 0.00 0.00 0.00 74 1012.9
20260501224555 39 344 0.0 6.0 0.00 0.00 0.00 74 1013.0
20260501223104 39 316 3.0 9.0 0.00 0.00 0.00 70 1013.0
20260501221556 39 309 3.0 8.0 0.00 0.00 0.00 69 1012.9
20260501220059 40 310 1.0 7.0 0.00 0.00 0.00 72 1012.9
20260501214559 39 287 2.0 8.0 0.00 0.00 0.00 72 1012.9
20260501213100 39 302 3.0 12.0 0.00 0.00 0.00 73 1012.7
20260501211613 40 300 2.0 9.0 0.00 0.00 0.00 72 1012.4
20260501210052 41 285 3.0 10.0 0.00 0.00 0.00 70 1012.4
20260501204621 42 321 4.0 10.0 0.00 0.00 0.00 68 1012.1
20260501203056 42 302 3.0 9.0 0.00 0.00 0.00 69 1012.2
20260501201558 43 314 2.0 7.0 0.00 0.00 0.00 67 1012.2
20260501200055 44 296 4.0 12.0 0.00 0.00 0.00 65 1012.0
20260501194559 43 285 3.0 13.0 0.00 0.00 0.00 69 1011.9
20260501193057 43 298 4.0 10.0 0.00 0.00 0.00 67 1012.0
20260501191556 44 313 2.0 10.0 0.00 0.00 0.00 67 1011.9
20260501190055 42 320 4.0 12.0 0.00 0.00 0.00 68 1011.8
20260501184553 42 308 5.0 12.0 0.00 0.00 0.00 69 1011.7
20260501183053 43 299 5.0 14.0 0.00 0.00 0.00 66 1011.8
20260501181555 44 309 3.0 11.0 0.00 0.00 0.00 65 1011.7
20260501180104 45 229 3.0 14.0 0.00 0.00 0.00 62 1011.6
20260501174559 45 275 3.0 12.0 0.00 0.00 0.00 63 1011.7
20260501173057 44 286 4.0 13.0 0.00 0.00 0.00 64 1011.7
20260501171558 44 297 4.0 10.0 0.00 0.00 0.00 63 1011.9
20260501170054 43 297 3.0 11.0 0.00 0.00 0.00 66 1011.8
20260501164600 44 233 4.0 11.0 0.00 0.00 0.00 66 1012.0
20260501163058 43 250 5.0 11.0 0.00 0.00 0.00 63 1012.0
20260501161557 44 258 3.0 8.0 0.00 0.00 0.00 63 1012.0
20260501160106 44 245 4.0 10.0 0.00 0.00 0.00 58 1012.0
20260501154556 44 271 4.0 9.0 0.00 0.00 0.00 59 1012.1
20260501153056 43 262 4.0 11.0 0.00 0.00 0.00 61 1012.1
20260501151556 42 287 4.0 9.0 0.00 0.00 0.00 65 1012.1
20260501150056 42 269 3.0 9.0 0.00 0.00 0.00 69 1012.1
20260501144553 41 285 4.0 8.0 0.00 0.00 0.00 71 1012.0
20260501143059 40 244 3.0 10.0 0.00 0.00 0.00 70 1012.0
20260501141605 41 244 2.0 7.0 0.00 0.00 0.00 73 1012.0
20260501140059 41 228 3.0 5.0 0.00 0.00 0.00 73 1012.2